Time,TemperatureF,DewpointF,PressureIn,WindDirection,WindDirectionDegrees,WindSpeedMPH,WindSpeedGustMPH,Humidity,HourlyPrecipIn,Conditions,Clouds,dailyrainin,SoftwareType,DateUTC
2013-12-15 00:14:00,47.7,47.4,29.68,South,180,0.0,-999.0,99,-99.99,,,0.00,Acu-Link.com,2013-12-15 05:14:00,
2013-12-15 00:29:00,47.8,47.5,29.69,SSW,202,0.0,-999.0,99,-99.99,,,0.00,Acu-Link.com,2013-12-15 05:29:00,
2013-12-15 00:45:00,47.8,47.5,29.67,North,0,1.1,-999.0,99,-99.99,,,0.01,Acu-Link.com,2013-12-15 05:45:00,
2013-12-15 01:00:00,47.5,47.2,29.68,ENE,67,5.3,-999.0,99,-99.99,,,0.01,Acu-Link.com,2013-12-15 06:00:00,
2013-12-15 01:15:00,46.6,46.3,29.68,WNW,292,1.7,-999.0,99,-99.99,,,0.02,Acu-Link.com,2013-12-15 06:15:00,
2013-12-15 01:30:00,45.9,45.6,29.69,West,270,2.2,-999.0,99,-99.99,,,0.03,Acu-Link.com,2013-12-15 06:30:00,
2013-12-15 01:45:00,45.1,44.8,29.68,WNW,292,3.2,-999.0,99,-99.99,,,0.03,Acu-Link.com,2013-12-15 06:45:00,
2013-12-15 02:00:00,44.4,44.1,29.69,West,270,2.2,-999.0,99,-99.99,,,0.03,Acu-Link.com,2013-12-15 07:00:00,
2013-12-15 02:15:00,43.9,43.6,29.69,WNW,292,2.2,-999.0,99,-99.99,,,0.03,Acu-Link.com,2013-12-15 07:15:00,
2013-12-15 02:31:00,42.8,42.5,29.70,North,0,4.2,-999.0,99,-99.99,,,0.03,Acu-Link.com,2013-12-15 07:31:00,
2013-12-15 02:46:00,41.7,41.4,29.70,East,90,3.7,-999.0,99,-99.99,,,0.03,Acu-Link.com,2013-12-15 07:46:00,
2013-12-15 03:01:00,41.0,40.7,29.71,NW,315,1.7,-999.0,99,-99.99,,,0.03,Acu-Link.com,2013-12-15 08:01:00,
2013-12-15 03:16:00,40.1,39.8,29.72,WNW,292,3.7,-999.0,99,-99.99,,,0.03,Acu-Link.com,2013-12-15 08:16:00,
2013-12-15 03:32:00,39.6,39.3,29.71,West,270,0.0,-999.0,99,-99.99,,,0.03,Acu-Link.com,2013-12-15 08:32:00,
2013-12-15 03:47:00,39.0,38.7,29.72,East,90,2.7,-999.0,99,-99.99,,,0.03,Acu-Link.com,2013-12-15 08:47:00,
2013-12-15 04:02:00,38.8,38.5,29.72,NNW,337,1.7,-999.0,99,-99.99,,,0.03,Acu-Link.com,2013-12-15 09:02:00,
2013-12-15 04:18:00,38.3,37.8,29.72,NW,315,2.7,-999.0,98,-99.99,,,0.03,Acu-Link.com,2013-12-15 09:18:00,
2013-12-15 04:33:00,38.1,37.8,29.72,NW,315,2.2,-999.0,99,-99.99,,,0.03,Acu-Link.com,2013-12-15 09:33:00,
2013-12-15 04:48:00,37.6,37.3,29.73,NW,315,3.2,-999.0,99,-99.99,,,0.03,Acu-Link.com,2013-12-15 09:48:00,
2013-12-15 05:03:00,37.0,36.7,29.72,SW,225,2.7,-999.0,99,-99.99,,,0.03,Acu-Link.com,2013-12-15 10:03:00,
2013-12-15 05:19:00,36.9,36.6,29.72,NW,315,1.7,-999.0,99,-99.99,,,0.03,Acu-Link.com,2013-12-15 10:19:00,
2013-12-15 05:34:00,36.5,36.2,29.73,NW,315,2.2,-999.0,99,-99.99,,,0.03,Acu-Link.com,2013-12-15 10:34:00,
2013-12-15 05:49:00,36.3,36.0,29.74,West,270,2.7,-999.0,99,-99.99,,,0.03,Acu-Link.com,2013-12-15 10:49:00,
2013-12-15 06:05:00,36.0,35.7,29.75,NW,315,4.7,-999.0,99,-99.99,,,0.03,Acu-Link.com,2013-12-15 11:05:00,
2013-12-15 06:20:00,35.6,35.3,29.75,ESE,112,2.7,-999.0,99,-99.99,,,0.03,Acu-Link.com,2013-12-15 11:20:00,
2013-12-15 06:35:00,35.1,34.8,29.76,East,90,4.7,-999.0,99,-99.99,,,0.03,Acu-Link.com,2013-12-15 11:35:00,
2013-12-15 06:51:00,34.9,34.6,29.77,NE,45,4.7,-999.0,99,-99.99,,,0.03,Acu-Link.com,2013-12-15 11:51:00,
2013-12-15 07:06:00,34.5,34.0,29.77,South,180,4.7,-999.0,98,-99.99,,,0.03,Acu-Link.com,2013-12-15 12:06:00,
2013-12-15 07:21:00,34.2,33.9,29.78,SW,225,3.2,-999.0,99,-99.99,,,0.03,Acu-Link.com,2013-12-15 12:21:00,
2013-12-15 07:36:00,34.0,33.7,29.80,WNW,292,2.7,-999.0,99,-99.99,,,0.04,Acu-Link.com,2013-12-15 12:36:00,
2013-12-15 07:52:00,33.6,33.3,29.81,NNW,337,1.7,-999.0,99,-99.99,,,0.04,Acu-Link.com,2013-12-15 12:52:00,
2013-12-15 08:07:00,33.6,33.3,29.81,NNW,337,2.2,-999.0,99,-99.99,,,0.04,Acu-Link.com,2013-12-15 13:07:00,
2013-12-15 08:22:00,33.8,33.3,29.82,East,90,2.7,-999.0,98,-99.99,,,0.04,Acu-Link.com,2013-12-15 13:22:00,
2013-12-15 08:37:00,34.0,33.2,29.83,West,270,2.2,-999.0,97,-99.99,,,0.04,Acu-Link.com,2013-12-15 13:37:00,
2013-12-15 08:53:00,34.5,33.7,29.84,West,270,3.2,-999.0,97,-99.99,,,0.04,Acu-Link.com,2013-12-15 13:53:00,
2013-12-15 09:08:00,34.5,33.2,29.85,WSW,247,2.2,-999.0,95,-99.99,,,0.04,Acu-Link.com,2013-12-15 14:08:00,
2013-12-15 09:23:00,34.9,33.4,29.86,WNW,292,3.2,-999.0,94,-99.99,,,0.04,Acu-Link.com,2013-12-15 14:23:00,
2013-12-15 09:39:00,36.3,34.5,29.86,NNE,22,1.7,-999.0,93,-99.99,,,0.04,Acu-Link.com,2013-12-15 14:39:00,
2013-12-15 09:54:00,36.7,34.3,29.87,ENE,67,2.2,-999.0,91,-99.99,,,0.04,Acu-Link.com,2013-12-15 14:54:00,
2013-12-15 10:09:00,36.3,33.7,29.88,WNW,292,3.2,-999.0,90,-99.99,,,0.04,Acu-Link.com,2013-12-15 15:09:00,
2013-12-15 10:24:00,36.1,33.5,29.88,NE,45,2.7,-999.0,90,-99.99,,,0.04,Acu-Link.com,2013-12-15 15:24:00,
2013-12-15 10:39:00,36.7,33.5,29.89,NNW,337,1.1,-999.0,88,-99.99,,,0.04,Acu-Link.com,2013-12-15 15:39:00,
2013-12-15 10:54:00,37.4,34.2,29.90,WSW,247,2.7,-999.0,88,-99.99,,,0.04,Acu-Link.com,2013-12-15 15:54:00,
2013-12-15 11:09:00,37.8,34.0,29.89,WNW,292,2.2,-999.0,86,-99.99,,,0.04,Acu-Link.com,2013-12-15 16:09:00,
2013-12-15 11:24:00,37.0,34.1,29.89,ESE,112,2.2,-999.0,89,-99.99,,,0.04,Acu-Link.com,2013-12-15 16:24:00,
2013-12-15 11:40:00,36.9,34.0,29.89,WNW,292,2.2,-999.0,89,-99.99,,,0.04,Acu-Link.com,2013-12-15 16:40:00,
2013-12-15 11:55:00,36.9,33.7,29.89,NW,315,3.7,-999.0,88,-99.99,,,0.04,Acu-Link.com,2013-12-15 16:55:00,
2013-12-15 12:10:00,37.6,33.8,29.89,SW,225,2.2,-999.0,86,-99.99,,,0.04,Acu-Link.com,2013-12-15 17:10:00,
2013-12-15 12:26:00,36.7,32.9,29.88,NW,315,2.2,-999.0,86,-99.99,,,0.04,Acu-Link.com,2013-12-15 17:26:00,
2013-12-15 12:41:00,38.3,34.2,29.88,North,0,3.2,-999.0,85,-99.99,,,0.04,Acu-Link.com,2013-12-15 17:41:00,
2013-12-15 12:56:00,37.4,33.3,29.88,West,270,2.7,-999.0,85,-99.99,,,0.04,Acu-Link.com,2013-12-15 17:56:00,
2013-12-15 13:11:00,37.2,33.1,29.88,WNW,292,1.7,-999.0,85,-99.99,,,0.04,Acu-Link.com,2013-12-15 18:11:00,
2013-12-15 13:26:00,36.7,32.3,29.88,West,270,3.7,-999.0,84,-99.99,,,0.04,Acu-Link.com,2013-12-15 18:26:00,
2013-12-15 13:42:00,36.9,32.5,29.88,WNW,292,3.2,-999.0,84,-99.99,,,0.04,Acu-Link.com,2013-12-15 18:42:00,
2013-12-15 13:57:00,37.4,33.0,29.89,NE,45,3.7,-999.0,84,-99.99,,,0.04,Acu-Link.com,2013-12-15 18:57:00,
2013-12-15 14:12:00,37.0,32.9,29.89,NNE,22,2.2,-999.0,85,-99.99,,,0.04,Acu-Link.com,2013-12-15 19:12:00,
2013-12-15 14:28:00,35.8,32.0,29.90,NNE,22,3.2,-999.0,86,-99.99,,,0.04,Acu-Link.com,2013-12-15 19:28:00,
2013-12-15 14:43:00,36.1,32.0,29.90,WSW,247,2.7,-999.0,85,-99.99,,,0.04,Acu-Link.com,2013-12-15 19:43:00,
2013-12-15 14:58:00,35.6,31.8,29.91,NE,45,3.7,-999.0,86,-99.99,,,0.04,Acu-Link.com,2013-12-15 19:58:00,
2013-12-15 15:14:00,35.4,31.6,29.91,NNW,337,1.7,-999.0,86,-99.99,,,0.04,Acu-Link.com,2013-12-15 20:14:00,
2013-12-15 15:29:00,34.3,30.8,29.91,East,90,3.2,-999.0,87,-99.99,,,0.04,Acu-Link.com,2013-12-15 20:29:00,
2013-12-15 15:44:00,34.7,31.5,29.92,WNW,292,2.2,-999.0,88,-99.99,,,0.04,Acu-Link.com,2013-12-15 20:44:00,
2013-12-15 16:00:00,35.1,31.1,29.92,West,270,0.0,-999.0,85,-99.99,,,0.04,Acu-Link.com,2013-12-15 21:00:00,
2013-12-15 16:15:00,34.9,30.9,29.93,NE,45,3.2,-999.0,85,-99.99,,,0.04,Acu-Link.com,2013-12-15 21:15:00,
2013-12-15 16:30:00,34.2,30.5,29.93,East,90,2.7,-999.0,86,-99.99,,,0.04,Acu-Link.com,2013-12-15 21:30:00,
2013-12-15 16:45:00,33.4,30.0,29.93,NW,315,2.7,-999.0,87,-99.99,,,0.04,Acu-Link.com,2013-12-15 21:45:00,
2013-12-15 17:00:00,32.5,29.6,29.94,NNW,337,2.2,-999.0,89,-99.99,,,0.04,Acu-Link.com,2013-12-15 22:00:00,
2013-12-15 17:16:00,31.6,29.0,29.95,NNE,22,1.1,-999.0,90,-99.99,,,0.04,Acu-Link.com,2013-12-15 22:16:00,
2013-12-15 17:31:00,31.1,28.8,29.95,West,270,1.7,-999.0,91,-99.99,,,0.04,Acu-Link.com,2013-12-15 22:31:00,
2013-12-15 17:46:00,30.6,28.6,29.96,NE,45,2.2,-999.0,92,-99.99,,,0.04,Acu-Link.com,2013-12-15 22:46:00,
2013-12-15 18:01:00,30.4,28.4,29.97,NW,315,2.2,-999.0,92,-99.99,,,0.04,Acu-Link.com,2013-12-15 23:01:00,
2013-12-15 18:16:00,30.0,28.0,29.97,NW,315,1.7,-999.0,92,-99.99,,,0.04,Acu-Link.com,2013-12-15 23:16:00,
2013-12-15 18:31:00,29.8,28.0,29.98,South,180,1.1,-999.0,93,-99.99,,,0.04,Acu-Link.com,2013-12-15 23:31:00,
2013-12-15 18:47:00,29.7,27.7,29.98,SSE,157,5.8,-999.0,92,-99.99,,,0.04,Acu-Link.com,2013-12-15 23:47:00,
2013-12-15 19:02:00,29.7,27.7,29.99,ENE,67,2.2,-999.0,92,-99.99,,,0.04,Acu-Link.com,2013-12-16 00:02:00,
2013-12-15 19:17:00,29.7,27.7,29.98,NE,45,2.7,-999.0,92,-99.99,,,0.04,Acu-Link.com,2013-12-16 00:17:00,
2013-12-15 19:33:00,29.3,27.3,29.99,NE,45,2.7,-999.0,92,-99.99,,,0.04,Acu-Link.com,2013-12-16 00:33:00,
2013-12-15 19:48:00,29.3,27.5,29.99,WNW,292,2.2,-999.0,93,-99.99,,,0.04,Acu-Link.com,2013-12-16 00:48:00,
2013-12-15 20:03:00,29.1,27.3,29.99,NE,45,3.2,-999.0,93,-99.99,,,0.04,Acu-Link.com,2013-12-16 01:03:00,
2013-12-15 20:18:00,29.1,27.6,30.00,North,0,2.7,-999.0,94,-99.99,,,0.04,Acu-Link.com,2013-12-16 01:18:00,
2013-12-15 20:34:00,29.1,27.6,30.00,West,270,2.2,-999.0,94,-99.99,,,0.04,Acu-Link.com,2013-12-16 01:34:00,
2013-12-15 20:49:00,28.9,27.7,30.01,NE,45,2.7,-999.0,95,-99.99,,,0.04,Acu-Link.com,2013-12-16 01:49:00,
2013-12-15 21:04:00,28.8,27.6,30.01,NE,45,3.2,-999.0,95,-99.99,,,0.04,Acu-Link.com,2013-12-16 02:04:00,
2013-12-15 21:19:00,28.8,27.6,30.01,NNE,22,2.7,-999.0,95,-99.99,,,0.04,Acu-Link.com,2013-12-16 02:19:00,
2013-12-15 21:34:00,28.8,27.6,30.01,WSW,247,2.7,-999.0,95,-99.99,,,0.04,Acu-Link.com,2013-12-16 02:34:00,
2013-12-15 21:49:00,29.1,27.9,30.01,ESE,112,3.7,-999.0,95,-99.99,,,0.04,Acu-Link.com,2013-12-16 02:49:00,
2013-12-15 22:04:00,29.1,27.6,30.01,NE,45,0.0,-999.0,94,-99.99,,,0.04,Acu-Link.com,2013-12-16 03:04:00,
2013-12-15 22:20:00,29.3,27.8,30.01,NW,315,1.7,-999.0,94,-99.99,,,0.04,Acu-Link.com,2013-12-16 03:20:00,
2013-12-15 22:35:00,29.3,27.8,30.01,ESE,112,0.0,-999.0,94,-99.99,,,0.04,Acu-Link.com,2013-12-16 03:35:00,
2013-12-15 22:50:00,29.5,28.0,30.02,NE,45,1.7,-999.0,94,-99.99,,,0.04,Acu-Link.com,2013-12-16 03:50:00,
2013-12-15 23:06:00,29.3,27.8,30.02,East,90,2.2,-999.0,94,-99.99,,,0.04,Acu-Link.com,2013-12-16 04:06:00,
2013-12-15 23:21:00,29.3,27.8,30.02,NNE,22,1.7,-999.0,94,-99.99,,,0.04,Acu-Link.com,2013-12-16 04:21:00,
2013-12-15 23:36:00,29.3,27.8,30.02,NW,315,1.1,-999.0,94,-99.99,,,0.04,Acu-Link.com,2013-12-16 04:36:00,
2013-12-15 23:51:00,29.3,27.8,30.02,East,90,2.2,-999.0,94,-99.99,,,0.04,Acu-Link.com,2013-12-16 04:51:00,